Liberal, Kansas, United States (67901)
Lat: 37.04N, Lon: 100.92W
Wx Zone: KSZ086
Local Info
Past Weather Observations for Wednesday, July 29, 2015

NOTE: This archive is for the closest National Weather Service station to Liberal. Information may differ from the station used for current weather conditions.

Click here for Long-term Archive

Time Weather Temperature Dewpoint Humidity Pressure Winds Precip Visibility
23:55
Clear
72°F / 22°C 63°F / 17°C 73% 30.24 in
(1024 mb)
E 9.2 mph
(E 15 kph)
- 10SM
23:35
Clear
72°F / 22°C 63°F / 17°C 73% 30.24 in
(1024 mb)
E 9.2 mph
(E 15 kph)
- 10SM
23:15
Clear
72°F / 22°C 63°F / 17°C 73% 30.24 in
(1024 mb)
E 10.4 mph
(E 17 kph)
- 10SM
22:55
Clear
73°F / 23°C 63°F / 17°C 69% 30.24 in
(1024 mb)
E 8.1 mph
(E 13 kph)
- 10SM
22:35
Clear
73°F / 23°C 63°F / 17°C 69% 30.21 in
(1023 mb)
E 8.1 mph
(E 13 kph)
- 10SM
22:15
Clear
75°F / 24°C 63°F / 17°C 65% 30.21 in
(1023 mb)
E 10.4 mph
(E 17 kph)
- 10SM
21:55
Partly Cloudy
75°F / 24°C 63°F / 17°C 65% 30.21 in
(1023 mb)
E 9.2 mph
(E 15 kph)
- 10SM
21:35
Mostly Cloudy
75°F / 24°C 63°F / 17°C 65% 30.21 in
(1023 mb)
E 11.5 mph
(E 19 kph)
- 10SM
21:15
Mostly Cloudy
77°F / 25°C 63°F / 17°C 61% 30.21 in
(1023 mb)
E 11.5 mph
(E 19 kph)
- 10SM
20:55
Mostly Cloudy
77°F / 25°C 64°F / 18°C 65% 30.21 in
(1023 mb)
E 10.4 mph
(E 17 kph)
- 10SM
20:35
Overcast
79°F / 26°C 64°F / 18°C 61% 30.21 in
(1023 mb)
E 5.8 mph
(E 9 kph)
- 10SM
20:15
Mostly Cloudy
79°F / 26°C 64°F / 18°C 61% 30.21 in
(1023 mb)
E 6.9 mph
(E 11 kph)
- 10SM
19:55
Partly Cloudy
79°F / 26°C 64°F / 18°C 61% 30.18 in
(1022 mb)
E 10.4 mph
(E 17 kph)
- 10SM
19:35
Partly Cloudy
81°F / 27°C 64°F / 18°C 58% 30.18 in
(1022 mb)
E 11.5 mph
(E 19 kph)
- 10SM
19:15
Partly Cloudy
81°F / 27°C 64°F / 18°C 58% 30.18 in
(1022 mb)
E 15 mph
(E 24 kph)
- 10SM
18:55
Mostly Cloudy
82°F / 28°C 64°F / 18°C 55% 30.18 in
(1022 mb)
E 16.1 mph
(E 26 kph)
- 10SM
18:35
Partly Cloudy
82°F / 28°C 64°F / 18°C 55% 30.15 in
(1021 mb)
NE 12.7 mph
(NE 20 kph)
- 10SM
18:15
Clear
82°F / 28°C 64°F / 18°C 55% 30.15 in
(1021 mb)
NE 12.7 mph
(NE 20 kph)
- 10SM
17:55
Clear
82°F / 28°C 64°F / 18°C 55% 30.15 in
(1021 mb)
NE 16.1 mph
(NE 26 kph)
- 10SM
17:35
Partly Cloudy
82°F / 28°C 64°F / 18°C 55% 30.15 in
(1021 mb)
NE 13.8 mph
(NE 22 kph)
- 10SM
17:15
Mostly Cloudy
84°F / 29°C 64°F / 18°C 51% 30.15 in
(1021 mb)
ENE 17.3 mph
(ENE 28 kph)
- 10SM
16:55
Overcast
82°F / 28°C 64°F / 18°C 55% 30.18 in
(1022 mb)
NE 13.8 mph
(NE 22 kph)
- 10SM
16:35
Mostly Cloudy
84°F / 29°C 66°F / 19°C 55% 30.15 in
(1021 mb)
ENE 13.8 mph
(ENE 22 kph)
- 10SM
16:15
Overcast
84°F / 29°C 64°F / 18°C 51% 30.18 in
(1022 mb)
ENE 10.4 mph
(ENE 17 kph)
- 10SM
15:55
Overcast
84°F / 29°C 64°F / 18°C 51% 30.18 in
(1022 mb)
ENE 13.8 mph
(ENE 22 kph)
- 10SM
15:35
Overcast
84°F / 29°C 64°F / 18°C 51% 30.18 in
(1022 mb)
ENE 13.8 mph
(ENE 22 kph)
- 10SM
15:15
Overcast
84°F / 29°C 64°F / 18°C 51% 30.18 in
(1022 mb)
ENE 9.2 mph
(ENE 15 kph)
- 10SM
14:55
Overcast
82°F / 28°C 64°F / 18°C 55% 30.18 in
(1022 mb)
NE 9.2 mph
(NE 15 kph)
- 10SM
14:35
Overcast
82°F / 28°C 64°F / 18°C 55% 30.18 in
(1022 mb)
NE 10.4 mph
(NE 17 kph)
- 10SM
14:15
Overcast
82°F / 28°C 64°F / 18°C 55% 30.21 in
(1023 mb)
NE 5.8 mph
(NE 9 kph)
- 10SM
13:55
Mostly Cloudy
84°F / 29°C 66°F / 19°C 55% 30.21 in
(1023 mb)
NE 6.9 mph
(NE 11 kph)
- 10SM
13:35
Partly Cloudy
82°F / 28°C 64°F / 18°C 55% 30.21 in
(1023 mb)
NE 9.2 mph
(NE 15 kph)
- 10SM
13:15
Partly Cloudy
82°F / 28°C 64°F / 18°C 55% 30.21 in
(1023 mb)
ENE 10.4 mph
(ENE 17 kph)
- 10SM
12:55
Partly Cloudy
82°F / 28°C 64°F / 18°C 55% 30.21 in
(1023 mb)
E 12.7 mph
(E 20 kph)
- 10SM
12:35
Partly Cloudy
81°F / 27°C 64°F / 18°C 58% 30.21 in
(1023 mb)
ENE 6.9 mph
(ENE 11 kph)
- 10SM
12:15
Clear
81°F / 27°C 64°F / 18°C 58% 30.21 in
(1023 mb)
E 9.2 mph
(E 15 kph)
- 10SM
11:55
Clear
81°F / 27°C 64°F / 18°C 58% 30.21 in
(1023 mb)
E 10.4 mph
(E 17 kph)
- 10SM
11:35
Clear
79°F / 26°C 63°F / 17°C 58% 30.21 in
(1023 mb)
ENE 6.9 mph
(ENE 11 kph)
- 10SM
11:15
Partly Cloudy
77°F / 25°C 61°F / 16°C 57% 30.21 in
(1023 mb)
SE 4.6 mph
(SE 7 kph)
- 10SM
10:55
Partly Cloudy
75°F / 24°C 61°F / 16°C 61% 30.21 in
(1023 mb)
E 8.1 mph
(E 13 kph)
- 10SM
10:35
Partly Cloudy
75°F / 24°C 61°F / 16°C 61% 30.24 in
(1024 mb)
E 8.1 mph
(E 13 kph)
- 10SM
10:15
Clear
73°F / 23°C 59°F / 15°C 61% 30.24 in
(1024 mb)
E 9.2 mph
(E 15 kph)
- 10SM
09:55
Clear
73°F / 23°C 57°F / 14°C 57% 30.24 in
(1024 mb)
E 10.4 mph
(E 17 kph)
- 10SM
09:35
Clear
73°F / 23°C 55°F / 13°C 53% 30.24 in
(1024 mb)
ENE 12.7 mph
(ENE 20 kph)
- 10SM
09:15
Partly Cloudy
70°F / 21°C 54°F / 12°C 57% 30.21 in
(1023 mb)
ENE 11.5 mph
(ENE 19 kph)
- 10SM
08:55
Partly Cloudy
70°F / 21°C 52°F / 11°C 53% 30.21 in
(1023 mb)
ENE 10.4 mph
(ENE 17 kph)
- 10SM
08:35
Partly Cloudy
68°F / 20°C 52°F / 11°C 56% 30.21 in
(1023 mb)
ENE 9.2 mph
(ENE 15 kph)
- 10SM
08:15
Partly Cloudy
66°F / 19°C 52°F / 11°C 60% 30.21 in
(1023 mb)
ENE 11.5 mph
(ENE 19 kph)
- 10SM
07:55
Clear
66°F / 19°C 52°F / 11°C 60% 30.18 in
(1022 mb)
ENE 17.3 mph
(ENE 28 kph)
- 10SM
07:35
Partly Cloudy
66°F / 19°C 52°F / 11°C 60% 30.18 in
(1022 mb)
ENE 16.1 mph
(ENE 26 kph)
- 10SM
07:15
Clear
66°F / 19°C 54°F / 12°C 64% 30.18 in
(1022 mb)
ENE 16.1 mph
(ENE 26 kph)
- 10SM
06:55
Clear
64°F / 18°C 54°F / 12°C 68% 30.18 in
(1022 mb)
ENE 17.3 mph
(ENE 28 kph)
- 10SM
06:35
Clear
66°F / 19°C 54°F / 12°C 64% 30.15 in
(1021 mb)
ENE 21.9 mph
(ENE 35 kph)
- 10SM
06:15
Clear
64°F / 18°C 55°F / 13°C 73% 30.15 in
(1021 mb)
NE 17.3 mph
(NE 28 kph)
- 10SM
05:55
Clear
64°F / 18°C 55°F / 13°C 73% 30.15 in
(1021 mb)
NE 16.1 mph
(NE 26 kph)
- 10SM
05:35
Partly Cloudy
66°F / 19°C 57°F / 14°C 73% 30.12 in
(1020 mb)
NE 17.3 mph
(NE 28 kph)
- 10SM
05:15
Partly Cloudy
66°F / 19°C 59°F / 15°C 78% 30.12 in
(1020 mb)
NE 16.1 mph
(NE 26 kph)
- 10SM
04:55
Mostly Cloudy
66°F / 19°C 59°F / 15°C 78% 30.12 in
(1020 mb)
NE 17.3 mph
(NE 28 kph)
- 10SM
04:35
Mostly Cloudy
66°F / 19°C 59°F / 15°C 78% 30.12 in
(1020 mb)
NE 17.3 mph
(NE 28 kph)
- 10SM
04:15
Mostly Cloudy
66°F / 19°C 59°F / 15°C 78% 30.12 in
(1020 mb)
NNE 15 mph
(NNE 24 kph)
- 10SM
03:55
Partly Cloudy
66°F / 19°C 59°F / 15°C 78% 30.12 in
(1020 mb)
N 16.1 mph
(N 26 kph)
- 10SM
03:35
Clear
66°F / 19°C 59°F / 15°C 78% 30.09 in
(1019 mb)
NNE 19.6 mph
(NNE 32 kph)
- 10SM
03:15
Clear
66°F / 19°C 59°F / 15°C 78% 30.12 in
(1020 mb)
NE 25.3 mph
(NE 41 kph)
- 10SM
02:55
Clear
64°F / 18°C 57°F / 14°C 78% 30.01 in
(1016 mb)
N 35.7 mph
(N 57 kph)
- 10SM
02:35
Partly Cloudy
66°F / 19°C 61°F / 16°C 83% 30.15 in
(1021 mb)
NNW 17.3 mph
(NNW 28 kph)
- 10SM
02:15
Clear
66°F / 19°C 61°F / 16°C 83% 30.12 in
(1020 mb)
NNW 17.3 mph
(NNW 28 kph)
- 10SM
01:55
Partly Cloudy
Thunder Storms
66°F / 19°C 61°F / 16°C 83% 30.18 in
(1022 mb)
NW 16.1 mph
(NW 26 kph)
0.01 in
(0.25 mm)
10SM
01:35
Mostly Cloudy
Thunder Storms
68°F / 20°C 61°F / 16°C 78% 30.18 in
(1022 mb)
NW 13.8 mph
(NW 22 kph)
0.01 in
(0.25 mm)
10SM
01:15
Overcast
Thunder Storms
68°F / 20°C 61°F / 16°C 78% 30.18 in
(1022 mb)
N 9.2 mph
(N 15 kph)
0.01 in
(0.25 mm)
10SM
00:55
Overcast
Thunder Storms
70°F / 21°C 59°F / 15°C 69% 30.18 in
(1022 mb)
NW 20.7 mph
(NW 33 kph)
0.03 in
(0.76 mm)
10SM
00:35
Overcast
Thunder Storms
72°F / 22°C 61°F / 16°C 69% 30.18 in
(1022 mb)
W 20.7 mph
(W 33 kph)
0.01 in
(0.25 mm)
10SM
00:15
Overcast
Thunder Storms
75°F / 24°C 61°F / 16°C 61% 30.15 in
(1021 mb)
SW 15 mph
(SW 24 kph)
- 10SM
Time Weather Temperature Dewpoint Humidity Pressure Winds Precip Visibility


Weather for websites

WeatherForYou.com, LLC is not responsible for any damages or problems caused by this service. Current weather conditions are obtained from the closest station including government and personal stations which may have varying degrees of accuracy. Weather forecasts are derived from the NOAA NDFD. Like all things, this site belongs to Jesus Christ... He just trusts us to maintain it. If you have any questions or comments email webmaster@weatherforyou.com

Copyright © 2015, WeatherForYou.com LLC. All rights reserved.